DAL842 KPDX-KSMF

Flight info

Callsign DAL842
Flight time 1h 7m
Altitude 39000
Route HRMNS6 HYJOE LMT TUDOR2
Aircraft A321/M-SDE3FGHIRWY/LB1

Departure

Time 2026-05-07 07:46
Airport Portland International Airport (KPDX)

Arrival

Time 2026-05-07 08:54
Airport Sacramento International Airport (KSMF)
Time Latitude Longitude Altitude Speed Heading
2026-05-07 07:11 45.59144 -122.59467 31 ft 0 kts 229°
2026-05-07 07:37 45.59145 -122.59465 31 ft 2 kts 230°
2026-05-07 07:37 45.59157 -122.59447 28 ft 4 kts 217°
2026-05-07 07:37 45.59179 -122.59426 30 ft 4 kts 200°
2026-05-07 07:37 45.59204 -122.59421 30 ft 4 kts 164°
2026-05-07 07:38 45.59224 -122.59438 29 ft 2 kts 122°
2026-05-07 07:38 45.59225 -122.59440 30 ft 0 kts 121°
2026-05-07 07:41 45.59224 -122.59439 30 ft 1 kts 121°
2026-05-07 07:41 45.59219 -122.59427 30 ft 4 kts 121°
2026-05-07 07:41 45.59210 -122.59305 33 ft 19 kts 89°
2026-05-07 07:42 45.59188 -122.59135 37 ft 16 kts 120°
2026-05-07 07:42 45.59131 -122.58992 36 ft 17 kts 120°
2026-05-07 07:42 45.59070 -122.58839 36 ft 18 kts 118°
2026-05-07 07:42 45.59006 -122.58668 32 ft 21 kts 119°
2026-05-07 07:43 45.58934 -122.58482 33 ft 22 kts 119°
2026-05-07 07:43 45.58860 -122.58293 34 ft 22 kts 119°
2026-05-07 07:43 45.58789 -122.58110 35 ft 21 kts 119°
2026-05-07 07:43 45.58716 -122.57924 39 ft 21 kts 118°
2026-05-07 07:44 45.58643 -122.57733 34 ft 24 kts 119°
2026-05-07 07:44 45.58558 -122.57520 33 ft 26 kts 119°
2026-05-07 07:44 45.58466 -122.57282 31 ft 28 kts 119°
2026-05-07 07:44 45.58376 -122.57051 32 ft 22 kts 119°
2026-05-07 07:45 45.58311 -122.56885 34 ft 18 kts 120°
2026-05-07 07:45 45.58283 -122.56723 33 ft 14 kts 56°
2026-05-07 07:45 45.58368 -122.56723 32 ft 13 kts 319°
2026-05-07 07:45 45.58384 -122.56754 31 ft 0 kts 300°
2026-05-07 07:46 45.58410 -122.56819 32 ft 33 kts 299°
2026-05-07 07:46 45.58683 -122.57518 31 ft 122 kts 298°
2026-05-07 07:46 45.59173 -122.58794 393 ft 154 kts 299°
2026-05-07 07:46 45.59665 -122.60149 1369 ft 153 kts 298°
2026-05-07 07:47 45.60153 -122.61507 2239 ft 159 kts 298°
2026-05-07 07:47 45.60501 -122.62475 2587 ft 173 kts 298°
2026-05-07 07:47 45.61088 -122.64101 3086 ft 195 kts 297°
2026-05-07 07:47 45.61553 -122.66027 3472 ft 217 kts 282°
2026-05-07 07:48 45.62120 -122.68176 3887 ft 247 kts 297°
2026-05-07 07:48 45.63006 -122.70349 4894 ft 257 kts 299°
2026-05-07 07:48 45.63907 -122.72570 6131 ft 259 kts 299°
2026-05-07 07:48 45.65106 -122.75527 7744 ft 261 kts 299°
2026-05-07 07:49 45.65722 -122.77044 8550 ft 262 kts 299°
2026-05-07 07:49 45.66567 -122.79354 9718 ft 263 kts 290°
2026-05-07 07:49 45.66944 -122.81921 10801 ft 267 kts 274°
2026-05-07 07:49 45.66745 -122.84577 11847 ft 273 kts 258°
2026-05-07 07:50 45.66185 -122.87192 12917 ft 276 kts 257°
2026-05-07 07:50 45.65470 -122.89770 13946 ft 286 kts 243°
2026-05-07 07:50 45.64005 -122.91746 14796 ft 308 kts 214°
2026-05-07 07:50 45.61813 -122.92619 15301 ft 346 kts 188°
2026-05-07 07:51 45.59363 -122.92285 15851 ft 369 kts 174°
2026-05-07 07:51 45.56850 -122.91317 16646 ft 379 kts 167°
2026-05-07 07:51 45.54370 -122.89911 17461 ft 391 kts 155°
2026-05-07 07:51 45.52102 -122.87689 18286 ft 400 kts 145°
2026-05-07 07:52 45.49843 -122.85346 19063 ft 403 kts 149°
2026-05-07 07:52 45.47471 -122.83195 19837 ft 405 kts 152°
2026-05-07 07:52 45.45035 -122.81169 20618 ft 407 kts 154°
2026-05-07 07:52 45.42558 -122.79178 21394 ft 410 kts 154°
2026-05-07 07:53 45.40067 -122.77174 22164 ft 414 kts 153°
2026-05-07 07:53 45.37562 -122.75120 22914 ft 417 kts 153°
2026-05-07 07:53 45.35050 -122.73018 23653 ft 421 kts 152°
2026-05-07 07:53 45.32526 -122.70870 24277 ft 425 kts 152°
2026-05-07 07:54 45.29983 -122.68687 24846 ft 429 kts 151°
2026-05-07 07:54 45.27453 -122.66516 25392 ft 433 kts 151°
2026-05-07 07:54 45.24860 -122.64295 25940 ft 437 kts 151°
2026-05-07 07:54 45.22238 -122.62058 26487 ft 441 kts 151°
2026-05-07 07:55 45.19591 -122.59813 27027 ft 445 kts 151°
2026-05-07 07:55 45.16920 -122.57553 27576 ft 449 kts 151°
2026-05-07 07:55 45.14224 -122.55276 28102 ft 453 kts 151°
2026-05-07 07:55 45.11502 -122.52978 28633 ft 457 kts 151°
2026-05-07 07:56 45.08759 -122.50662 29136 ft 461 kts 151°
2026-05-07 07:56 45.05991 -122.48329 29637 ft 465 kts 151°
2026-05-07 07:56 45.03198 -122.45977 30134 ft 469 kts 151°
2026-05-07 07:56 45.00383 -122.43609 30567 ft 473 kts 151°
2026-05-07 07:57 44.97538 -122.41217 31007 ft 476 kts 151°
2026-05-07 07:57 44.94615 -122.39017 31471 ft 476 kts 159°
2026-05-07 07:57 44.91520 -122.37413 32073 ft 472 kts 165°
2026-05-07 07:57 44.88448 -122.35983 32662 ft 471 kts 165°
2026-05-07 07:58 44.85339 -122.34536 33284 ft 469 kts 165°
2026-05-07 07:58 44.82200 -122.33078 33901 ft 468 kts 165°
2026-05-07 07:58 44.79113 -122.31640 34485 ft 467 kts 164°
2026-05-07 07:58 44.76073 -122.30222 35021 ft 465 kts 165°
2026-05-07 07:59 44.72998 -122.28793 35535 ft 465 kts 165°
2026-05-07 07:59 44.69931 -122.27370 36005 ft 464 kts 165°
2026-05-07 07:59 44.66861 -122.25948 36422 ft 465 kts 165°
2026-05-07 07:59 44.63792 -122.24529 36877 ft 463 kts 164°
2026-05-07 08:00 44.60740 -122.23119 37455 ft 461 kts 164°
2026-05-07 08:00 44.57704 -122.21715 37962 ft 459 kts 164°
2026-05-07 08:00 44.54668 -122.20311 38446 ft 458 kts 164°
2026-05-07 08:00 44.51644 -122.18916 38857 ft 458 kts 164°
2026-05-07 08:01 44.48605 -122.17520 39104 ft 459 kts 164°
2026-05-07 08:01 44.42527 -122.14727 39174 ft 460 kts 164°
2026-05-07 08:02 44.36443 -122.11937 39158 ft 460 kts 164°
2026-05-07 08:02 44.30403 -122.09175 39166 ft 459 kts 164°
2026-05-07 08:03 44.24323 -122.06401 39165 ft 459 kts 164°
2026-05-07 08:03 44.18249 -122.03635 39154 ft 459 kts 164°
2026-05-07 08:04 44.12171 -122.00868 39156 ft 459 kts 164°
2026-05-07 08:04 44.06096 -121.98101 39157 ft 459 kts 164°
2026-05-07 08:05 44.00026 -121.95349 39159 ft 459 kts 164°
2026-05-07 08:05 43.93960 -121.92612 39157 ft 458 kts 164°
2026-05-07 08:06 43.87903 -121.89886 39161 ft 457 kts 165°
2026-05-07 08:06 43.81688 -121.88455 39162 ft 452 kts 179°
2026-05-07 08:07 43.75416 -121.87868 39148 ft 452 kts 178°
2026-05-07 08:07 43.69151 -121.87258 39157 ft 451 kts 178°
2026-05-07 08:08 43.62901 -121.86653 39139 ft 450 kts 178°
2026-05-07 08:08 43.56657 -121.86048 39153 ft 450 kts 178°
2026-05-07 08:09 43.50417 -121.85442 39143 ft 449 kts 178°
2026-05-07 08:09 43.44185 -121.84843 39141 ft 448 kts 178°
2026-05-07 08:10 43.38006 -121.84257 39135 ft 448 kts 178°
2026-05-07 08:10 43.31783 -121.83665 39129 ft 448 kts 178°
2026-05-07 08:11 43.25557 -121.83072 39118 ft 448 kts 177°
2026-05-07 08:11 43.19341 -121.82482 39121 ft 448 kts 177°
2026-05-07 08:12 43.13131 -121.81890 39118 ft 447 kts 177°
2026-05-07 08:12 43.06922 -121.81304 39119 ft 447 kts 177°
2026-05-07 08:13 43.00712 -121.80714 39118 ft 447 kts 177°
2026-05-07 08:13 42.94499 -121.80123 39125 ft 447 kts 177°
2026-05-07 08:14 42.88291 -121.79539 39116 ft 447 kts 177°
2026-05-07 08:14 42.82126 -121.78959 39124 ft 447 kts 177°
2026-05-07 08:15 42.75929 -121.78382 39128 ft 446 kts 177°
2026-05-07 08:15 42.69735 -121.77801 39130 ft 446 kts 177°
2026-05-07 08:16 42.63497 -121.77209 39126 ft 446 kts 177°
2026-05-07 08:16 42.57339 -121.76636 39126 ft 446 kts 177°
2026-05-07 08:17 42.51143 -121.76067 39125 ft 446 kts 177°
2026-05-07 08:17 42.44948 -121.75495 39130 ft 446 kts 177°
2026-05-07 08:18 42.38754 -121.74919 39128 ft 446 kts 177°
2026-05-07 08:18 42.32561 -121.74343 39131 ft 446 kts 177°
2026-05-07 08:19 42.26408 -121.73772 39137 ft 446 kts 177°
2026-05-07 08:19 42.20224 -121.73205 39138 ft 445 kts 177°
2026-05-07 08:20 42.14045 -121.72669 39232 ft 444 kts 178°
2026-05-07 08:20 42.07871 -121.72533 39236 ft 444 kts 181°
2026-05-07 08:21 42.01695 -121.72633 39220 ft 443 kts 181°
2026-05-07 08:21 41.95526 -121.72684 39203 ft 443 kts 181°
2026-05-07 08:22 41.89357 -121.72655 39185 ft 443 kts 180°
2026-05-07 08:22 41.83187 -121.72602 39171 ft 443 kts 180°
2026-05-07 08:23 41.77022 -121.72568 39161 ft 443 kts 180°
2026-05-07 08:23 41.70906 -121.72546 39169 ft 443 kts 180°
2026-05-07 08:24 41.64748 -121.72516 39167 ft 443 kts 180°
2026-05-07 08:24 41.58587 -121.72483 39177 ft 443 kts 180°
2026-05-07 08:25 41.52429 -121.72456 39181 ft 443 kts 180°
2026-05-07 08:25 41.46266 -121.72425 39185 ft 443 kts 180°
2026-05-07 08:26 41.37003 -121.72384 39184 ft 444 kts 180°
2026-05-07 08:26 41.30828 -121.72358 39179 ft 444 kts 180°
2026-05-07 08:27 41.24658 -121.72331 39171 ft 443 kts 180°
2026-05-07 08:27 41.18490 -121.72298 39167 ft 443 kts 180°
2026-05-07 08:28 41.12366 -121.72266 39164 ft 443 kts 180°
2026-05-07 08:28 41.06208 -121.72244 39164 ft 443 kts 180°
2026-05-07 08:29 41.00052 -121.72218 39165 ft 442 kts 180°
2026-05-07 08:29 40.93901 -121.72190 39163 ft 442 kts 180°
2026-05-07 08:30 40.87749 -121.72161 39147 ft 442 kts 179°
2026-05-07 08:30 40.81611 -121.72123 39155 ft 441 kts 179°
2026-05-07 08:31 40.75480 -121.72085 39161 ft 440 kts 179°
2026-05-07 08:31 40.69351 -121.72062 39112 ft 440 kts 179°
2026-05-07 08:32 40.66262 -121.72053 38101 ft 451 kts 179°
2026-05-07 08:32 40.63103 -121.72042 37420 ft 451 kts 179°
2026-05-07 08:32 40.60000 -121.72034 37135 ft 442 kts 179°
2026-05-07 08:32 40.56933 -121.72028 36615 ft 439 kts 179°
2026-05-07 08:33 40.53924 -121.72016 36091 ft 437 kts 179°
2026-05-07 08:33 40.50851 -121.71998 35541 ft 435 kts 179°
2026-05-07 08:33 40.47866 -121.71979 34978 ft 434 kts 179°
2026-05-07 08:33 40.44847 -121.71961 34406 ft 434 kts 179°
2026-05-07 08:34 40.41830 -121.71882 33788 ft 434 kts 177°
2026-05-07 08:34 40.38823 -121.71678 33199 ft 432 kts 176°
2026-05-07 08:34 40.35829 -121.71399 32603 ft 430 kts 175°
2026-05-07 08:34 40.32852 -121.71087 31998 ft 429 kts 175°
2026-05-07 08:35 40.29882 -121.70773 31394 ft 428 kts 175°
2026-05-07 08:35 40.26919 -121.70478 30803 ft 426 kts 175°
2026-05-07 08:35 40.23965 -121.70205 30203 ft 425 kts 176°
2026-05-07 08:35 40.21015 -121.69953 29567 ft 423 kts 176°
2026-05-07 08:36 40.18090 -121.69711 28989 ft 419 kts 176°
2026-05-07 08:36 40.15190 -121.69471 28406 ft 416 kts 176°
2026-05-07 08:36 40.12317 -121.69229 27843 ft 412 kts 176°
2026-05-07 08:36 40.09464 -121.68987 27284 ft 409 kts 176°
2026-05-07 08:37 40.06640 -121.68748 26749 ft 405 kts 176°
2026-05-07 08:37 40.03836 -121.68510 26218 ft 402 kts 176°
2026-05-07 08:37 40.01093 -121.68277 25700 ft 398 kts 176°
2026-05-07 08:37 39.98324 -121.68039 25087 ft 398 kts 176°
2026-05-07 08:38 39.95574 -121.67801 24597 ft 394 kts 176°
2026-05-07 08:38 39.92848 -121.67567 24097 ft 391 kts 176°
2026-05-07 08:38 39.90140 -121.67335 23559 ft 389 kts 176°
2026-05-07 08:38 39.87451 -121.67104 23034 ft 385 kts 177°
2026-05-07 08:39 39.84791 -121.66876 22511 ft 380 kts 177°
2026-05-07 08:39 39.82166 -121.66653 21996 ft 376 kts 177°
2026-05-07 08:39 39.79564 -121.66432 21494 ft 373 kts 177°
2026-05-07 08:39 39.77019 -121.66215 20991 ft 370 kts 177°
2026-05-07 08:40 39.74460 -121.65998 20475 ft 367 kts 177°
2026-05-07 08:40 39.71916 -121.65784 19960 ft 365 kts 178°
2026-05-07 08:40 39.69387 -121.65573 19442 ft 363 kts 178°
2026-05-07 08:40 39.66870 -121.65361 18941 ft 361 kts 178°
2026-05-07 08:41 39.64369 -121.65150 18431 ft 359 kts 178°
2026-05-07 08:41 39.61883 -121.64941 17886 ft 356 kts 178°
2026-05-07 08:41 39.59424 -121.64735 17391 ft 352 kts 178°
2026-05-07 08:41 39.56991 -121.64528 16906 ft 349 kts 178°
2026-05-07 08:42 39.54579 -121.64323 16426 ft 346 kts 178°
2026-05-07 08:42 39.52993 -121.64189 16111 ft 344 kts 178°
2026-05-07 08:42 39.50616 -121.63990 15639 ft 341 kts 178°
2026-05-07 08:42 39.48255 -121.63792 15168 ft 339 kts 178°
2026-05-07 08:43 39.45913 -121.63596 14701 ft 337 kts 178°
2026-05-07 08:43 39.43581 -121.63398 14230 ft 335 kts 178°
2026-05-07 08:43 39.41262 -121.63200 13731 ft 333 kts 178°
2026-05-07 08:43 39.38960 -121.63004 13241 ft 330 kts 178°
2026-05-07 08:44 39.36675 -121.62812 12745 ft 327 kts 178°
2026-05-07 08:44 39.34410 -121.62621 12276 ft 324 kts 178°
2026-05-07 08:44 39.32165 -121.62433 11785 ft 322 kts 178°
2026-05-07 08:44 39.29939 -121.62247 11317 ft 320 kts 178°
2026-05-07 08:45 39.27726 -121.62063 10832 ft 318 kts 178°
2026-05-07 08:45 39.25530 -121.61880 10355 ft 315 kts 177°
2026-05-07 08:45 39.23399 -121.61701 10153 ft 304 kts 177°
2026-05-07 08:45 39.21332 -121.61529 9943 ft 293 kts 177°
2026-05-07 08:46 39.19316 -121.61361 9734 ft 289 kts 177°
2026-05-07 08:46 39.17301 -121.61192 9226 ft 290 kts 177°
2026-05-07 08:46 39.15281 -121.61024 8680 ft 292 kts 177°
2026-05-07 08:46 39.13263 -121.60856 8184 ft 291 kts 177°
2026-05-07 08:47 39.11251 -121.60689 7705 ft 290 kts 177°
2026-05-07 08:47 39.09228 -121.60521 7268 ft 288 kts 178°
2026-05-07 08:47 39.07234 -121.60355 6830 ft 287 kts 178°
2026-05-07 08:47 39.05243 -121.60189 6356 ft 286 kts 178°
2026-05-07 08:48 39.03259 -121.60026 5869 ft 286 kts 178°
2026-05-07 08:48 39.01275 -121.59862 5365 ft 286 kts 177°
2026-05-07 08:48 38.99292 -121.59699 4892 ft 285 kts 176°
2026-05-07 08:48 38.97319 -121.59594 4433 ft 283 kts 179°
2026-05-07 08:49 38.95361 -121.59597 3980 ft 280 kts 181°
2026-05-07 08:49 38.93404 -121.59665 3447 ft 281 kts 182°
2026-05-07 08:49 38.91493 -121.59760 3185 ft 270 kts 181°
2026-05-07 08:49 38.89654 -121.59799 2926 ft 259 kts 180°
2026-05-07 08:50 38.87879 -121.59824 2680 ft 251 kts 180°
2026-05-07 08:50 38.86165 -121.59851 2427 ft 242 kts 181°
2026-05-07 08:50 38.84595 -121.59877 2219 ft 207 kts 181°
2026-05-07 08:50 38.83240 -121.59900 2077 ft 185 kts 180°
2026-05-07 08:51 38.81998 -121.59921 1908 ft 174 kts 180°
2026-05-07 08:51 38.80822 -121.59941 1857 ft 167 kts 180°
2026-05-07 08:51 38.79678 -121.59960 1775 ft 167 kts 180°
2026-05-07 08:51 38.78515 -121.59979 1569 ft 167 kts 180°
2026-05-07 08:52 38.77411 -121.59997 1365 ft 144 kts 180°
2026-05-07 08:52 38.76479 -121.60013 1173 ft 127 kts 180°
2026-05-07 08:52 38.75627 -121.60027 1020 ft 120 kts 180°
2026-05-07 08:52 38.74806 -121.60041 861 ft 117 kts 180°
2026-05-07 08:53 38.73991 -121.60054 715 ft 117 kts 179°
2026-05-07 08:53 38.73182 -121.60065 559 ft 116 kts 179°
2026-05-07 08:53 38.72374 -121.60078 364 ft 116 kts 178°
2026-05-07 08:53 38.71566 -121.60094 223 ft 117 kts 178°
2026-05-07 08:54 38.70753 -121.60110 69 ft 117 kts 179°
2026-05-07 08:54 38.69996 -121.60116 37 ft 98 kts 183°
2026-05-07 08:54 38.69561 -121.60103 30 ft 47 kts 168°
2026-05-07 08:54 38.69340 -121.59988 32 ft 7 kts 150°
2026-05-07 08:55 38.69339 -121.59987 32 ft 0 kts 150°
2026-05-07 08:57 38.69277 -121.59941 34 ft 18 kts 149°
2026-05-07 08:57 38.69261 -121.59880 32 ft 7 kts 33°
2026-05-07 08:57 38.69381 -121.59871 32 ft 24 kts
2026-05-07 08:58 38.69552 -121.59867 33 ft 25 kts
2026-05-07 08:58 38.69688 -121.59846 34 ft 13 kts 50°
2026-05-07 08:58 38.69702 -121.59734 34 ft 14 kts 91°
2026-05-07 08:58 38.69700 -121.59604 35 ft 15 kts 91°
2026-05-07 08:59 38.69700 -121.59454 35 ft 21 kts 89°
2026-05-07 08:59 38.69698 -121.59204 34 ft 31 kts 94°
2026-05-07 08:59 38.69693 -121.58918 34 ft 33 kts 91°
2026-05-07 08:59 38.69689 -121.58641 32 ft 18 kts 102°
2026-05-07 09:00 38.69654 -121.58615 32 ft 12 kts 178°
2026-05-07 09:00 38.69514 -121.58618 31 ft 23 kts 180°
2026-05-07 09:00 38.69389 -121.58612 32 ft 4 kts 206°
2026-05-07 09:00 38.69366 -121.58633 32 ft 4 kts 216°
2026-05-07 09:01 38.69348 -121.58650 32 ft 0 kts 215°